Location: Ferintosh
(52.7647°N, 112.9692°W)
Time: 14:49:05
(UTC+00:00)

Transit 2A - Pass Details

Date: 21 May 2024
Orbit: 593 x 959 km, 66.7° (Epoch: 14 June)

Event Time Altitude Azimuth Distance (km) Brightness Sun altitude
Rises 12:15:37 0° 314° (NW) 3,244 9.0 5.7°
Reaches altitude 10° 12:18:20 10° 327° (NNW) 2,380 8.5 6.1°
Maximum altitude 12:22:56 26° 24° (NNE) 1,618 8.5 6.7°
Drops below altitude 10° 12:27:51 10° 79° (E) 2,572 10.8 7.4°
Sets 12:30:54 0° 92° (E) 3,559 10.8 7.8°
